#timestamp,LO_Frequency,Hit,StdDev 
1653908415.9,286047000.9,N
1653908435.7,286046999.8,N
1653908455.5,286046999.8,N
1653908475.4,286047002.4,Y
1653908525.2,286047000.9,E
1653908535.2,286047000.8,N
1653908555.9,286047001.1,P
1653908575.7,286047000.7,P
1653908595.6,286047000.7,Y
1653908615.4,286047001.2,P
1653908635.3,286047001.1,P
1653908655.1,286046998.4,P
1653908656.0,286046998.4,N
1653908675.8,286046996.6,N
1653908695.7,286047001.1,N
1653908715.5,286046999.3,N
1653908735.3,286046996.6,N
1653908755.2,286046998.6,N
1653908775.0,286047000.8,N
1653908775.9,286047000.8,N
1653908795.8,286046998.5,N
1653908815.6,286046998.5,N
1653908835.4,286046998.1,N
1653908855.3,286046998.2,N
1653908875.1,286046998.2,N
1653908895.9,286046999.0,N
1653908915.7,286046998.9,N
1653908935.5,286047001.0,N
1653908955.4,286047000.5,N
1653908975.2,286046999.0,N
1653908995.0,286046999.5,N
1653908995.9,286046999.5,N
1653909015.8,286046996.9,N
1653909035.6,286046997.0,N
1653909055.5,286046996.7,N
1653909075.3,286046996.8,N
1653909095.1,286046997.0,N
1653909115.9,286046997.7,N
1653909135.7,286046999.3,N
1653909155.5,286046997.5,N
1653909175.4,286046996.6,N
1653909195.2,286046999.6,N
1653909215.1,286046996.9,N
1653909216.0,286046996.9,N
1653909235.8,286046996.8,N
1653909255.6,286046996.7,N
1653909275.5,286046996.8,N
1653909295.3,286046996.9,N
1653909315.2,286046999.0,N
1653909335.9,286046998.9,N
1653909355.7,286046998.3,N
1653909375.6,286046999.3,N
1653909395.4,286046996.5,N
1653909415.2,286046997.0,N
1653909435.1,286046997.4,N
1653909436.0,286046997.4,N
1653909455.8,286047002.1,N
1653909475.7,286047005.9,Y
1653909495.5,286047009.0,P
1653909515.3,286047007.1,N
1653909535.2,286047005.1,N
1653909555.0,286047003.3,N
1653909555.9,286047003.3,N
1653909575.8,286047003.7,N
1653909595.6,286047005.9,N
1653909615.4,286047003.0,N
1653909635.3,286047004.2,N
1653909655.1,286047004.2,N
1653909675.8,286047004.3,N
1653909695.7,286047001.5,N
1653909715.5,286047002.2,N
1653909735.4,286046999.8,N
1653909755.2,286047000.4,N
1653909775.0,286047000.3,N
1653909775.9,286047000.3,N
1653909795.8,286047000.0,N
1653909815.6,286047000.7,N
1653909835.4,286046998.1,N
1653909855.3,286047011.9,Y
1653909875.1,286046997.7,P
1653909895.9,286046997.8,N
1653909915.7,286046997.3,N
1653909935.5,286046997.9,N
1653909955.4,286046997.1,N
1653909975.2,286046997.0,N
1653909995.0,286046997.0,N
1653909995.9,286046997.0,N
1653910015.8,286046997.3,N
1653910035.6,286046997.2,N
1653910055.5,286046997.5,N
1653910075.3,286046995.2,Y
1653910095.1,286046998.2,P
1653910115.9,286047000.8,P
1653910135.7,286046998.5,N
1653910155.6,286047001.1,N
1653910175.4,286047000.6,N
1653910195.2,286047000.1,N
1653910215.1,286047000.7,N
1653910216.0,286047000.7,N
1653910235.8,286046998.5,N
1653910255.6,286046998.1,N
1653910275.5,286046998.3,N
1653910295.3,286046998.6,N
1653910315.2,286046998.5,N
1653910335.9,286046998.1,N
1653910355.7,286047000.7,N
1653910375.6,286046998.6,N
1653910395.4,286047001.1,N
1653910415.2,286047000.7,N
1653910435.1,286047000.9,N
1653910436.0,286047000.9,N
1653910455.8,286047000.8,N
1653910475.7,286046998.6,N
1653910495.5,286047000.4,N
1653910515.3,286047000.3,N
1653910535.2,286047002.8,N
1653910555.0,286047002.7,N
1653910555.9,286047002.7,N
1653910575.8,286047000.1,N
1653910595.6,286047000.0,N
1653910615.4,286046998.1,N
1653910635.3,286047000.8,N
1653910655.1,286047000.6,N
1653910675.9,286047000.7,N
1653910695.7,286047000.3,N
1653910715.5,286046999.9,N
1653910735.4,286047000.2,N
1653910755.2,286047000.0,N
1653910775.0,286047000.3,N
1653910775.9,286047000.3,N
1653910795.8,286047000.8,N
1653910815.6,286046998.4,N
1653910835.5,286046998.7,N
1653910855.3,286046998.9,N
1653910875.1,286046996.5,N
1653910895.9,286046998.9,N
1653910915.7,286046998.8,N
1653910935.5,286047001.1,N
1653910955.4,286046999.4,N
1653910975.2,286046999.4,N
1653910995.1,286046999.3,N
1653910996.0,286046999.3,N
1653911015.8,286046998.2,N
1653911035.6,286046998.6,N
1653911055.5,286047000.4,N
1653911075.3,286047000.7,N
1653911095.1,286046998.4,N
1653911115.9,286046998.9,N
1653911135.7,286046998.9,N
1653911155.6,286046999.2,N
1653911175.7,286046999.4,N
1653911195.5,286046998.7,N
1653911215.4,286046998.5,N
1653911235.2,286046999.4,N
1653911255.0,286046998.7,N
1653911256.0,286046998.7,N
1653911275.8,286046998.5,N
1653911295.6,286046998.4,N
1653911315.5,286046998.4,N
1653911335.3,286046999.0,N
1653911355.1,286047000.8,N
1653911375.9,286046998.6,N
1653911395.7,286046998.7,N
1653911415.6,286047001.2,N
1653911435.4,286047000.8,N
1653911455.2,286047000.6,N
1653911475.1,286046999.9,N
1653911476.0,286046999.9,N
1653911495.8,286047000.9,N
1653911515.7,286047000.4,N
1653911535.5,286046999.8,N
1653911555.3,286047001.0,N
1653911575.2,286047002.8,N
1653911595.0,286047002.6,N
1653911595.9,286047002.6,N
1653911615.7,286046999.7,N
1653911635.6,286047001.6,N
1653911655.4,286047002.3,N
1653911675.3,286047000.9,N
1653911695.1,286047001.1,N
1653911696.0,286047001.1,N
1653911715.8,286047000.0,N
1653911735.7,286046998.2,N
1653911755.5,286046996.9,N
1653911775.3,286046996.7,N
1653911795.2,286046997.5,N
1653911815.0,286046996.0,N
1653911815.9,286046996.0,N
1653911835.8,286046996.3,N
1653911855.6,286046995.5,N
1653911875.4,286046995.1,N
1653911895.3,286046994.9,N
1653911915.1,286046993.8,N
1653911935.9,286046993.3,N
1653911955.7,286046998.0,N
1653911975.5,286046997.7,N
1653911995.4,286046994.9,N
